Wind_Gust
15 15 15 15 15 15 14 14 14 14 14 14 14 14 15 15 14 14 14 14 14 14 13 14 14 14 14 15 16 17 14 14 16 10 6 26 13 20 11 13 11 14 9 6 4 2 4 2 5 7 4 2 7 5 12 6 7 4 8 8 9 14 12 12 16 5 7 19 18 17 9 7 4 8 8 11 20 11 11 13 10 20 16 11 18 24 24 22
15 16 15 15 16 15 15 15 14 15 15 15 14 15 14 14 14 14 14 14 14 14 14 13 14 14 14 14 15 16 14 11 15 13 28 13 16 17 18 20 21 11 13 4 6 4 3 5 9 7 6 5 4 9 3 9 7 9 7 9 18 10 18 4 9 6 10 12 19 10 8 5 2 2 4 11 9 12 15 12 13 20 16 19 19 22 21 20
16 16 16 16 15 15 15 15 15 14 14 14 14 14 14 15 14 14 14 14 14 13 14 14 14 14 14 13 14 12 12 11 9 15 23 24 23 17 19 17 14 16 15 7 6 7 11 3 4 2 6 7 6 9 5 12 4 8 9 13 14 8 10 11 6 8 7 7 6 7 10 7 4 5 6 7 9 12 17 17 8 18 19 19 20 15 17 17
16 16 16 15 15 15 15 15 15 15 15 15 14 14 13 14 14 14 13 14 14 13 13 14 14 13 13 13 13 10 8 7 6 10 9 4 23 25 20 17 11 16 6 4 4 5 2 6 9 7 9 10 9 7 8 11 8 8 9 13 12 10 12 15 5 7 9 10 8 4 7 6 13 6 4 4 7 5 8 18 21 19 23 22 21 19 15 16
16 16 16 15 15 15 14 15 15 14 15 15 15 14 14 14 13 13 13 13 13 13 13 13 13 13 13 13 11 7 8 5 4 5 4 6 14 23 23 16 15 10 9 4 2 4 5 6 5 5 8 14 8 3 9 7 14 5 11 14 16 12 10 18 14 10 10 8 8 6 3 4 10 9 7 3 2 10 16 13 21 25 25 27 23 19 17 15
17 16 16 15 15 15 15 15 15 15 14 14 14 14 14 14 14 13 13 13 12 12 12 13 14 13 13 13 9 7 2 7 6 6 3 6 11 17 20 16 11 8 5 3 4 1 2 4 5 6 7 9 8 12 9 11 8 16 13 8 13 16 14 10 10 9 1 9 6 3 3 2 3 6 6 3 5 7 7 16 18 24 24 23 22 22 19 16
17 16 16 15 16 16 15 15 14 14 14 14 14 14 14 14 13 13 13 13 13 12 12 12 12 13 13 12 5 4 3 21 7 12 8 5 7 11 12 11 11 8 7 6 4 7 4 4 3 8 7 7 7 14 13 8 7 12 22 8 13 12 19 20 12 6 7 6 6 6 1 3 3 7 4 5 5 8 18 19 20 21 20 21 22 13 15 14
17 16 16 15 16 16 16 15 15 15 14 15 15 14 14 14 13 13 12 12 12 12 11 11 11 12 10 8 4 3 2 16 18 4 9 10 10 12 13 8 9 7 8 10 9 7 2 5 10 7 8 7 7 7 7 7 5 9 17 13 15 11 13 15 10 7 8 9 11 5 3 6 5 5 5 4 11 17 19 21 21 21 20 17 16 16 18 19
17 16 16 15 16 16 15 15 15 15 15 14 14 14 13 13 14 13 13 12 12 11 11 12 11 10 8 5 2 5 12 14 6 10 10 11 9 11 12 11 7 11 8 7 5 3 4 7 9 13 10 8 8 10 7 5 16 11 19 16 14 13 11 11 9 8 10 12 8 8 6 6 9 6 7 12 12 16 18 20 22 22 20 17 16 17 17 17
17 16 16 16 16 16 15 15 15 15 14 15 14 14 13 13 13 12 11 11 11 11 11 11 11 8 6 4 3 2 9 5 8 13 11 11 11 10 6 5 11 8 8 7 4 5 9 15 11 6 5 10 6 10 6 6 16 9 8 8 14 17 13 8 11 8 8 9 4 8 4 5 5 7 6 6 18 19 19 19 18 21 19 16 16 16 16 23
17 17 16 16 16 15 15 15 15 15 15 14 14 14 14 13 13 13 12 11 11 11 11 11 9 6 6 5 3 11 8 7 4 9 12 12 13 12 13 8 12 13 10 6 14 16 15 15 12 11 14 14 6 10 5 9 4 10 10 7 8 7 7 6 5 9 5 11 3 6 9 7 4 4 20 13 13 20 23 18 17 17 15 16 16 16 14 13
18 17 16 16 16 15 15 15 15 15 15 15 14 14 14 13 12 12 12 11 11 10 9 7 6 5 6 3 4 18 4 3 10 9 13 14 12 16 10 10 12 11 11 8 8 9 11 15 13 14 15 5 9 11 9 11 10 12 10 10 7 8 14 6 8 8 3 10 3 5 3 7 4 6 22 21 16 18 23 19 18 17 16 16 15 15 13 12
19 18 16 16 16 16 15 15 15 15 15 15 14 14 13 13 12 12 11 11 9 8 8 9 6 5 4 4 20 19 10 3 8 9 9 11 8 7 10 8 12 13 13 11 11 10 12 10 9 15 14 4 3 10 13 12 10 10 10 7 8 10 16 13 7 10 8 10 5 7 13 13 15 6 25 21 22 21 21 18 17 15 16 15 14 14 12 11
20 18 17 16 16 15 15 15 15 15 15 14 14 13 12 11 13 12 11 11 10 9 9 7 2 4 3 14 17 8 10 13 11 8 10 10 7 7 9 10 9 9 8 10 13 15 12 9 5 9 4 3 9 4 12 14 4 5 9 4 5 6 20 9 13 9 10 12 5 6 11 19 8 17 22 23 24 24 21 20 19 19 17 17 16 16 16 11
20 19 17 16 16 16 16 15 15 15 14 14 14 13 11 12 13 12 11 11 11 11 7 4 3 2 3 21 12 14 19 9 13 13 13 12 8 3 8 10 12 12 12 14 13 10 10 8 4 5 7 4 4 7 11 11 9 7 12 11 10 8 18 19 8 9 19 15 10 12 13 21 9 18 19 18 20 24 23 20 20 19 18 19 17 17 17 14
22 20 19 16 15 15 15 15 15 15 14 15 14 13 14 14 13 11 11 10 9 7 2 4 7 4 4 19 11 11 5 9 16 17 13 14 11 10 10 10 7 8 10 11 12 9 5 4 5 6 6 7 5 4 5 13 14 11 5 7 10 4 15 17 11 15 19 16 6 19 17 8 10 16 19 21 24 22 22 18 18 19 18 19 18 17 16 15
23 21 19 17 16 15 15 15 15 15 14 13 14 15 14 13 12 9 8 7 7 8 6 4 5 7 4 8 11 5 10 10 5 8 8 11 12 12 5 6 9 8 6 7 10 6 7 4 5 4 4 7 4 4 5 7 10 14 4 13 7 7 10 17 19 16 19 14 12 20 18 11 6 17 26 18 19 17 20 19 17 18 17 15 17 18 17 17
24 23 21 19 17 15 15 15 14 14 14 13 13 12 12 8 8 9 5 5 6 7 8 9 7 4 24 9 8 9 6 5 8 10 12 11 12 7 5 11 7 6 2 6 5 5 4 7 4 8 5 6 3 6 5 10 9 8 7 5 10 5 9 19 23 12 11 16 19 16 17 11 8 6 20 19 16 22 22 24 20 20 17 15 15 18 18 17
24 23 22 20 17 15 15 14 14 13 14 13 17 18 12 5 6 4 4 7 5 3 6 7 9 10 8 7 10 8 6 11 5 11 9 9 7 9 7 6 3 5 4 6 11 5 5 5 10 4 7 5 6 10 13 15 9 12 6 6 5 6 16 16 20 11 17 10 11 13 18 12 8 4 15 17 21 22 21 17 15 15 15 15 15 14 16 16
25 24 23 21 18 15 13 12 11 11 12 10 11 4 5 4 4 4 2 3 9 11 11 10 16 10 17 19 10 7 5 7 9 11 8 8 7 6 8 9 7 6 5 9 5 6 6 6 7 9 13 12 9 9 14 16 13 10 4 4 4 6 15 20 10 5 12 11 3 7 4 5 8 3 4 12 11 15 19 15 14 14 17 19 18 17 16 16
25 24 24 22 20 17 14 11 9 6 6 4 8 5 7 3 5 10 7 14 12 14 16 13 20 21 23 14 15 11 7 8 7 9 13 10 5 9 7 9 6 5 7 9 11 5 6 5 13 14 14 14 14 12 7 4 5 3 4 5 11 4 10 14 8 8 9 12 3 4 9 4 4 7 6 17 15 20 21 20 18 19 19 19 21 18 17 16
26 25 24 23 21 18 15 11 7 6 5 3 3 7 9 8 10 5 11 22 9 20 17 22 14 19 22 19 23 11 13 11 7 5 5 11 6 13 5 7 6 11 4 5 3 6 4 13 18 17 17 10 9 5 5 5 2 3 4 4 5 9 7 13 15 17 14 11 2 3 4 3 3 6 6 21 22 21 24 28 26 23 17 18 17 18 16 13
26 25 24 23 22 20 16 12 3 3 4 4 5 3 11 8 4 8 9 14 25 10 17 18 15 19 25 20 21 7 12 13 17 9 12 9 4 12 6 7 8 9 7 3 10 4 7 11 22 22 8 8 7 6 3 5 5 2 9 5 8 4 7 10 14 12 11 10 5 4 5 9 8 5 8 15 17 18 18 19 20 21 24 21 22 22 23 19
26 25 24 24 22 21 17 11 6 2 6 8 8 13 13 7 13 13 8 10 17 21 16 19 17 16 19 20 13 17 17 14 10 12 9 15 13 6 8 8 5 5 10 7 9 14 18 17 6 8 9 11 8 6 6 5 3 5 2 6 6 5 3 3 9 4 6 8 4 6 14 16 8 5 8 5 12 17 13 12 16 17 23 25 21 19 25 27
26 26 25 24 23 22 20 14 5 9 6 4 10 14 15 16 12 6 6 15 11 20 7 8 14 11 19 9 7 13 17 12 16 10 17 17 11 11 13 10 9 13 13 7 5 7 15 20 5 8 6 7 9 4 2 9 2 6 7 9 8 5 3 9 7 8 15 11 8 7 9 13 11 5 4 8 8 14 15 17 19 20 10 13 20 20 11 11
26 25 24 22 22 24 18 9 4 9 5 13 15 10 13 9 6 8 9 9 14 14 5 8 15 17 18 14 9 13 7 19 14 13 18 20 18 17 11 12 17 12 9 6 13 19 20 14 9 10 7 8 9 9 5 8 5 2 12 7 6 4 4 4 5 8 3 5 9 5 9 13 13 9 7 6 8 14 9 16 19 13 13 16 18 18 19 19
26 25 23 22 19 20 9 5 6 13 8 11 3 12 11 11 3 9 13 10 10 11 9 5 12 14 13 7 15 9 8 21 11 9 15 16 17 10 8 13 7 8 7 5 8 14 5 6 7 3 4 4 4 2 6 10 11 9 8 5 6 4 6 3 8 3 6 6 7 7 9 9 12 17 7 2 7 10 12 14 9 15 17 20 17 19 19 22
25 24 23 20 18 11 6 12 13 8 12 10 9 11 13 12 6 11 13 10 17 9 8 5 10 5 5 6 14 19 15 5 7 9 17 20 11 9 14 7 10 6 4 6 8 14 4 8 7 6 3 4 4 8 6 4 10 11 6 3 1 3 6 6 9 5 3 3 13 11 4 6 8 15 10 5 8 8 10 15 16 19 25 24 22 24 24 25
25 23 22 20 21 17 5 5 3 10 9 5 14 13 13 6 12 11 10 10 11 11 11 11 11 4 4 2 10 13 12 5 6 4 11 14 14 14 15 14 7 3 4 5 10 11 8 12 14 12 10 8 9 8 6 10 6 7 9 4 3 3 3 6 4 5 6 7 6 7 5 10 11 12 11 8 4 5 6 7 11 18 23 22 23 18 14 12
25 24 21 19 14 5 4 5 14 14 11 14 16 13 6 11 10 7 7 10 10 10 5 7 9 6 5 9 11 10 13 7 4 3 15 20 12 3 8 7 11 5 8 4 5 14 13 9 12 12 12 13 9 6 7 8 12 5 5 8 9 10 7 7 10 7 7 4 10 7 5 7 7 10 8 5 6 6 6 6 7 13 16 13 13 18 18 18
28 26 20 12 7 6 3 9 17 18 14 10 12 6 10 13 8 10 4 19 11 10 5 4 10 3 8 7 10 8 9 6 6 9 8 10 11 9 3 8 7 7 5 8 10 10 11 4 9 9 9 6 5 4 5 3 2 5 3 3 9 11 14 12 12 8 7 9 9 5 4 4 5 11 13 9 13 10 11 11 10 11 16 16 13 10 13 17
28 28 21 10 12 4 9 14 4 2 10 12 9 8 11 4 10 9 16 7 14 10 4 6 3 8 12 8 9 11 15 7 7 14 16 17 6 14 10 10 8 6 8 5 12 9 9 4 7 6 5 10 2 3 12 5 10 11 9 12 10 7 13 8 10 7 6 11 4 2 2 8 5 10 8 13 11 11 6 13 17 20 15 14 14 12 10 11
30 25 29 18 13 8 14 23 13 14 10 10 7 7 10 9 10 12 13 5 11 4 6 5 6 8 5 6 13 11 10 12 7 10 11 9 10 11 8 17 11 14 10 7 4 7 11 9 5 6 7 4 9 6 6 4 5 5 5 8 9 4 4 6 9 6 7 11 10 4 3 7 9 9 4 6 13 6 5 15 14 15 19 20 17 14 13 10
30 27 19 8 16 19 10 3 9 4 4 7 8 11 10 6 15 9 10 10 11 7 11 11 11 17 10 11 15 11 9 10 8 13 15 9 6 10 7 7 10 5 9 3 9 5 6 12 11 3 8 7 8 9 14 11 5 7 8 15 15 15 15 10 10 11 12 13 9 6 8 9 5 12 5 9 9 13 14 15 17 17 15 15 16 15 14 12
33 23 12 10 11 18 21 15 4 1 2 6 11 10 12 17 8 7 7 6 11 6 13 8 15 8 14 22 10 20 13 10 5 2 8 12 11 11 12 8 7 9 7 8 8 6 7 13 13 9 4 3 6 7 8 7 9 5 6 12 11 16 15 11 16 11 7 4 6 6 8 11 9 7 4 11 18 18 19 19 21 18 15 15 16 14 11 11
17 11 6 14 9 9 16 14 7 5 9 9 9 8 14 17 10 7 12 6 7 10 20 24 9 13 10 13 12 12 9 10 8 8 4 6 8 13 11 12 15 14 14 18 10 8 4 9 6 9 3 8 13 8 6 7 8 9 5 3 7 10 16 10 3 3 9 11 11 5 6 7 10 8 11 9 10 14 21 19 22 16 17 18 17 13 10 9
15 15 13 7 8 7 12 13 16 12 11 12 10 12 16 14 13 13 11 10 13 14 8 15 15 6 7 12 13 13 10 11 12 17 14 7 15 8 7 7 10 16 20 18 5 8 12 12 11 5 8 10 8 6 6 5 14 11 7 11 6 8 11 13 10 6 4 8 14 2 5 3 6 11 12 12 13 12 8 17 23 21 23 21 13 11 10 10
17 11 12 13 21 11 14 16 17 9 13 10 10 10 6 11 7 12 11 19 20 7 14 11 11 4 5 8 20 16 8 6 14 8 12 14 18 11 9 9 8 6 4 5 14 5 10 10 8 2 3 8 13 4 11 2 3 8 9 6 10 9 9 10 12 5 4 6 8 4 4 4 1 8 10 12 9 8 10 7 16 17 19 21 19 14 13 10
6 7 19 16 7 15 16 19 14 13 9 9 9 8 12 18 13 17 16 19 15 12 13 12 12 8 7 16 16 18 10 16 9 6 9 7 9 7 8 6 4 5 9 11 10 6 9 10 13 7 7 7 6 11 7 13 15 4 4 11 3 16 6 4 10 9 13 7 3 8 7 6 6 3 1 4 2 8 12 10 8 8 11 14 14 13 12 11
6 9 11 7 6 11 19 18 12 9 10 9 8 14 5 15 16 13 15 12 14 8 12 8 2 4 4 6 4 7 5 4 11 15 6 10 8 6 9 6 6 12 9 7 6 4 4 6 8 13 7 7 10 10 5 8 10 13 13 3 6 7 6 11 5 4 7 9 6 6 6 6 11 8 6 5 10 6 14 12 7 6 7 11 12 12 9 9
6 3 18 10 15 12 20 15 12 13 11 8 5 9 8 14 11 12 15 11 15 14 14 6 4 4 6 6 8 3 5 8 11 6 9 3 5 6 3 7 3 7 7 9 12 8 9 6 7 9 12 4 7 4 6 6 4 3 8 7 11 10 6 3 10 8 7 10 9 7 7 12 11 4 3 10 7 18 18 18 14 10 11 12 15 12 11 9
6 8 14 13 18 6 22 16 15 7 10 6 12 11 14 10 15 19 20 18 13 19 13 13 5 7 4 6 6 6 5 5 3 4 8 12 6 5 6 9 9 8 14 7 3 2 10 8 9 4 6 8 10 10 3 4 4 5 5 5 6 8 15 12 6 9 5 5 11 8 11 10 11 5 2 6 11 8 6 15 14 9 8 9 12 13 9 8
8 10 17 19 16 4 15 7 7 6 7 11 5 11 16 22 17 19 20 11 15 10 8 6 4 6 6 10 5 7 7 7 4 3 11 5 8 13 8 8 5 10 10 7 6 5 10 9 4 9 12 11 15 12 10 11 9 13 13 9 8 4 8 13 10 12 9 3 5 4 5 10 10 6 4 11 10 9 9 14 16 12 10 12 13 12 12 10
7 9 16 10 15 9 11 12 8 6 11 8 7 13 10 17 15 15 15 10 18 6 4 7 10 8 2 9 4 4 5 8 7 11 10 11 10 6 7 6 6 6 7 9 10 5 10 7 12 4 9 16 15 17 15 13 16 9 5 9 6 7 8 4 10 6 10 3 9 14 8 4 5 8 11 13 13 12 12 8 12 15 9 11 12 10 11 10
12 8 8 16 18 11 8 7 8 7 6 7 7 7 10 9 8 11 8 12 12 5 3 7 8 6 10 6 7 4 8 8 6 16 9 5 11 9 13 12 13 9 7 8 10 9 14 4 8 7 7 5 6 4 6 10 12 9 4 9 10 12 9 12 4 5 8 3 8 7 6 9 10 6 12 12 15 13 8 10 7 12 12 11 10 9 8 9
12 11 17 18 20 15 10 4 6 6 3 5 4 10 4 8 10 7 7 5 7 10 18 12 21 13 20 15 11 12 14 11 12 9 13 13 14 14 10 11 11 11 9 13 8 10 8 4 7 10 13 14 10 8 6 3 8 9 12 8 9 5 7 10 9 8 7 5 5 8 14 7 6 7 9 9 16 14 11 12 14 10 8 10 10 12 11 10
7 16 12 18 19 11 13 9 17 16 13 6 4 9 8 7 9 8 14 11 12 7 14 25 20 20 10 9 6 11 17 9 10 15 11 5 10 11 10 13 12 10 11 9 7 12 7 6 2 9 5 8 7 3 4 3 4 5 6 9 10 10 6 9 7 4 7 11 6 5 3 12 5 4 6 7 3 10 13 11 8 11 11 13 12 11 10 12
14 5 7 5 6 12 20 15 19 15 12 9 8 12 13 12 15 15 10 12 9 21 10 14 23 18 12 6 8 16 14 10 17 10 10 13 7 14 12 13 9 8 9 6 7 10 10 6 4 4 2 4 4 5 7 8 5 4 6 5 5 5 12 9 3 2 5 3 9 6 3 8 4 2 5 7 8 7 3 3 7 8 8 10 10 11 12 15
8 7 4 12 10 6 10 16 19 7 15 15 8 17 19 17 18 18 13 11 16 19 14 11 16 19 19 17 13 10 15 9 12 8 12 12 6 8 9 8 9 12 10 7 8 5 11 3 3 4 4 6 6 8 10 13 11 11 8 5 3 5 3 5 3 2 6 3 4 8 10 11 6 5 5 7 10 15 12 10 12 13 10 9 7 10 14 16
14 10 13 11 6 7 11 11 9 13 15 17 14 12 19 17 15 15 24 20 12 13 12 17 13 17 17 19 18 16 7 4 3 5 6 9 13 10 5 4 6 11 9 4 2 6 12 7 5 4 7 4 4 8 12 11 10 9 6 5 2 3 5 3 5 5 9 7 6 10 15 11 7 5 4 4 7 12 17 18 13 12 14 11 10 9 6 5
7 3 6 10 16 17 12 16 12 12 22 24 18 16 12 19 15 11 19 19 16 9 9 8 7 13 15 18 17 13 9 8 7 6 7 6 7 5 5 8 6 6 9 5 3 6 11 5 4 5 6 6 4 6 6 7 7 7 7 10 10 7 9 7 11 4 9 6 2 13 15 7 11 10 4 11 16 18 16 13 13 11 8 10 11 8 4 8
7 4 3 4 12 14 12 11 18 14 20 17 18 14 19 12 12 9 11 14 16 13 7 7 5 16 11 16 13 10 9 8 9 12 11 13 8 9 6 8 4 4 6 6 1 7 5 8 6 5 8 7 7 7 6 7 11 12 7 11 7 6 12 10 12 12 7 8 12 12 3 4 5 4 15 15 16 15 15 10 9 11 10 10 12 11 10 5
Wind_Speed
11 11 11 11 12 12 11 11 11 11 11 11 11 11 11 11 11 11 11 11 11 11 10 11 11 11 11 12 13 14 12 7 10 5 4 14 9 14 7 10 5 8 5 3 2 2 2 1 2 3 1 1 2 0 3 2 3 2 2 2 5 6 5 4 4 1 2 7 9 11 6 3 2 4 1 5 9 7 7 8 4 11 10 7 7 16 16 14
12 12 12 11 12 12 12 12 11 11 12 12 11 12 11 11 11 11 11 10 10 11 11 11 11 11 12 11 12 12 9 7 9 9 17 7 12 14 15 14 15 8 10 2 3 2 1 2 4 0 1 1 1 2 1 2 2 3 1 3 9 4 6 1 0 1 3 6 8 7 1 4 0 0 1 4 3 4 9 5 5 11 10 13 12 12 13 13
12 12 12 12 12 12 12 12 12 11 11 11 11 11 11 12 11 11 11 11 10 10 11 11 11 11 11 10 11 10 8 6 5 9 14 18 18 14 14 14 12 10 9 4 3 4 5 0 3 1 1 1 2 4 1 4 0 3 4 6 7 4 5 5 1 5 4 5 4 3 7 4 3 2 3 3 4 5 9 8 4 10 12 12 13 11 9 8
13 12 12 12 12 12 11 12 12 12 12 12 11 11 11 10 11 11 10 11 11 10 10 11 11 11 11 11 11 6 4 4 2 4 5 1 18 19 15 14 9 12 3 1 3 3 0 1 3 2 2 4 4 2 2 4 1 2 3 5 5 6 5 8 4 5 5 6 4 2 2 4 6 2 0 3 5 1 4 9 14 13 15 15 14 12 9 9
13 13 12 12 12 12 11 12 12 11 11 11 11 11 11 11 10 10 10 10 10 10 10 10 11 10 11 11 9 4 4 1 1 3 3 2 12 18 17 13 10 6 5 2 1 1 1 1 0 1 2 4 3 1 4 3 5 0 5 6 8 6 5 10 8 7 6 7 6 4 1 1 6 4 4 1 1 5 7 6 13 17 17 18 15 12 10 9
13 13 13 12 12 12 12 12 12 12 11 11 11 11 11 11 11 10 10 10 9 9 10 10 11 11 10 11 5 3 0 2 2 3 2 5 8 14 16 13 9 5 4 1 1 1 2 1 3 1 2 3 4 5 4 6 3 5 6 5 7 9 7 4 4 4 1 2 4 1 1 1 2 3 3 1 3 3 4 7 13 16 16 16 15 14 11 9
13 13 13 12 12 12 12 12 11 11 11 11 11 11 11 10 10 10 10 9 9 9 9 9 9 10 10 9 2 1 1 7 3 8 4 5 5 8 10 9 9 5 4 3 2 2 2 0 1 3 2 4 4 5 7 1 4 6 7 5 9 9 11 13 8 5 5 6 3 2 0 0 1 2 1 2 3 2 10 11 12 13 13 14 14 9 8 8
13 13 13 12 12 12 12 12 12 11 11 11 11 11 11 11 11 10 10 9 9 9 9 9 9 9 8 5 1 1 1 7 11 2 6 8 8 9 10 6 6 5 5 6 6 4 1 2 5 1 3 4 3 3 2 2 2 5 6 7 9 6 8 10 7 5 5 6 7 4 2 4 3 2 2 1 3 10 12 13 14 14 14 11 11 12 13 11
13 13 13 12 12 12 12 12 11 11 12 11 11 11 10 10 10 10 10 9 9 8 9 9 8 7 6 1 1 2 6 8 3 7 8 8 7 8 9 4 4 7 4 4 3 3 2 3 3 3 5 1 3 5 4 2 6 5 12 9 7 7 7 8 6 6 5 4 5 5 5 4 7 5 3 3 7 11 12 12 13 14 13 12 11 12 11 11
13 13 13 13 13 13 12 12 12 12 11 11 11 11 10 10 10 10 8 8 8 8 8 8 8 7 3 1 1 1 3 5 4 8 7 8 8 7 5 3 8 5 4 5 3 4 4 6 7 2 3 6 2 5 4 3 6 2 5 5 8 12 9 6 7 5 3 2 3 3 3 3 2 4 1 4 7 12 13 12 11 13 12 11 11 11 10 12
14 13 13 13 13 12 12 12 12 12 12 11 11 10 11 11 10 10 9 8 8 7 7 8 6 4 2 2 1 5 5 4 1 5 8 9 9 8 9 5 8 6 6 3 8 10 8 6 3 2 4 4 2 4 1 3 1 6 6 5 6 5 5 4 2 5 2 3 2 4 6 5 1 3 10 7 5 12 15 12 12 10 10 10 10 11 7 7
14 14 13 12 12 12 12 12 12 12 11 11 11 10 11 11 10 9 9 8 8 7 6 5 4 1 2 1 2 8 3 1 5 4 7 9 7 9 8 7 8 7 7 4 3 4 7 9 4 0 5 1 3 5 4 4 4 6 5 4 5 4 5 3 2 3 0 3 3 1 2 3 1 2 14 12 9 11 15 13 12 10 10 9 9 8 8 7
15 14 13 13 13 12 12 12 12 12 12 12 11 11 11 11 10 9 8 8 6 6 5 6 4 2 1 2 10 10 2 2 4 6 4 4 3 4 5 5 9 7 8 7 5 6 7 5 4 9 8 1 1 1 4 5 5 5 4 1 5 5 7 9 3 5 3 2 3 4 4 8 7 3 15 12 12 11 13 11 10 9 9 9 9 9 5 4
16 15 14 13 12 12 12 12 12 12 12 11 11 10 9 9 11 10 8 8 8 7 6 5 0 1 1 6 6 4 4 7 6 4 6 6 4 3 4 6 6 5 3 4 7 6 6 6 4 5 1 1 3 3 6 4 2 1 4 2 1 4 6 4 4 2 5 3 3 3 4 10 1 10 15 14 14 15 13 12 11 10 10 10 9 10 10 8
16 15 14 13 12 12 12 12 12 12 12 12 11 11 9 10 10 10 9 8 8 7 5 3 1 0 0 8 7 8 14 6 8 8 8 6 4 0 5 6 6 8 8 9 4 6 7 4 3 1 1 1 1 3 5 4 3 1 5 5 5 2 8 11 1 4 7 2 7 5 6 11 3 11 12 11 11 14 14 12 12 11 10 10 10 11 11 9
18 16 15 13 12 12 12 12 12 12 12 11 12 11 11 11 10 9 8 7 6 5 0 2 3 2 2 7 3 7 2 4 7 11 8 9 6 5 6 6 4 5 7 6 7 3 3 1 2 2 2 4 2 1 2 7 7 5 1 3 5 2 7 8 7 6 12 5 2 10 6 4 1 9 13 13 16 14 14 11 11 12 12 10 10 10 10 9
18 17 15 14 13 12 12 12 12 12 12 11 11 12 11 10 9 7 6 5 4 3 3 0 2 3 1 3 4 2 3 3 4 4 5 5 8 6 2 2 4 5 4 4 5 4 3 1 2 1 2 1 1 2 3 4 4 5 2 3 3 4 5 6 11 7 10 9 5 9 7 6 2 12 15 12 13 10 11 13 11 11 10 9 9 10 10 10
19 18 17 15 14 13 12 12 11 11 11 11 10 8 6 5 5 6 3 2 2 3 3 4 3 2 9 2 2 3 1 2 3 4 7 6 8 5 3 3 4 3 0 3 3 1 1 2 0 3 2 3 1 3 2 4 4 3 3 2 5 2 6 12 6 6 5 9 10 9 10 7 4 2 9 12 11 14 14 15 13 13 11 9 8 8 9 10
19 18 18 16 14 12 12 11 11 11 11 11 13 13 8 2 2 1 1 2 2 1 1 1 2 2 2 3 5 5 2 6 3 6 4 4 3 3 3 3 1 3 1 1 4 0 1 1 4 2 3 2 2 6 7 9 5 7 4 3 2 4 7 4 11 7 10 6 7 9 10 7 5 2 10 11 13 14 11 7 8 7 8 9 9 8 8 8
19 19 18 17 15 13 11 10 9 9 10 7 5 1 2 0 0 0 0 2 4 6 7 6 8 4 10 11 5 2 2 1 3 6 5 4 3 2 4 3 2 2 3 3 2 2 2 2 4 5 7 8 6 6 8 9 7 6 2 2 2 3 6 8 7 4 6 6 0 4 3 4 1 1 0 2 5 4 9 10 8 8 9 11 11 11 9 9
20 19 18 18 16 14 11 10 7 5 5 2 3 1 1 1 2 2 2 8 7 8 9 6 13 12 11 6 7 6 2 3 4 4 8 5 3 5 2 4 2 3 3 6 5 2 2 2 7 9 9 9 9 7 3 3 2 0 1 3 6 1 3 7 4 4 6 5 1 1 6 3 1 2 5 12 10 10 11 10 11 12 12 12 14 12 11 10
20 19 19 18 17 15 13 9 6 5 3 1 0 2 3 4 4 1 1 6 5 14 11 15 8 10 10 11 13 5 6 3 4 4 2 7 3 6 2 2 3 5 2 0 1 2 1 6 11 11 11 5 5 2 3 3 1 2 1 1 3 4 4 8 4 7 4 4 0 1 2 2 1 3 5 13 15 11 12 17 16 14 11 9 10 12 10 8
21 20 19 19 18 16 13 10 3 2 1 1 1 1 4 4 1 3 1 4 11 4 10 10 6 12 13 8 8 5 6 6 7 5 4 5 2 6 3 2 4 4 1 1 4 2 3 6 14 15 4 4 4 3 1 1 2 1 4 2 3 2 2 4 8 8 7 3 1 1 3 3 6 2 5 8 8 7 9 11 13 12 13 11 13 14 14 13
21 20 19 19 18 17 14 9 5 1 3 4 2 6 6 4 7 5 3 3 5 10 7 9 10 6 9 6 3 8 8 4 4 7 4 5 6 3 2 4 2 1 5 4 5 7 9 11 1 3 5 7 5 4 3 2 2 2 1 3 1 1 1 1 4 2 4 4 1 4 7 6 5 3 4 3 5 8 7 6 8 8 12 14 10 11 16 18
21 20 20 19 18 18 16 11 2 4 3 1 5 8 10 10 6 3 0 3 2 6 3 3 5 4 7 3 2 3 4 2 9 4 5 9 4 3 5 2 2 6 6 3 1 2 10 13 3 3 4 5 5 3 1 4 0 2 4 5 4 2 3 5 5 2 6 3 4 3 2 4 3 1 2 1 4 7 8 11 12 11 4 5 10 11 6 6
21 20 19 18 17 20 15 3 1 3 3 5 6 4 7 6 5 3 2 2 5 5 2 3 4 5 3 3 4 3 5 6 8 5 8 9 9 6 1 3 4 6 5 3 6 5 7 9 6 7 3 4 6 5 3 5 3 1 5 4 4 2 3 3 3 4 1 1 3 2 2 3 6 4 3 1 5 10 4 6 8 7 7 8 9 10 10 11
20 20 19 17 15 17 4 1 3 5 3 2 0 6 7 7 2 2 3 2 3 3 3 1 2 1 0 3 5 3 1 7 4 4 7 7 7 3 3 7 0 1 2 1 3 4 1 3 5 2 3 2 3 1 3 6 6 2 4 3 4 2 3 2 5 2 1 3 3 4 3 2 4 7 3 1 5 7 8 9 5 5 7 10 9 10 10 11
20 19 18 16 15 8 3 4 7 3 5 5 6 7 8 7 1 4 3 1 1 2 1 0 2 1 1 1 9 6 7 1 2 3 10 10 6 3 5 4 5 4 1 1 4 7 1 3 5 4 2 2 1 3 2 3 3 3 3 2 0 2 4 4 5 3 1 2 5 6 2 1 2 7 4 2 4 2 7 11 10 10 9 12 12 13 14 14
20 18 18 16 17 13 3 2 0 4 4 3 8 8 6 3 5 4 3 2 4 0 2 2 5 1 1 1 3 7 5 1 1 2 2 6 7 6 4 7 3 2 2 3 4 4 2 7 9 7 5 4 5 4 4 6 1 4 6 1 2 1 2 4 2 3 2 3 2 2 2 2 4 6 6 4 1 2 3 2 8 13 15 13 13 10 7 7
20 19 17 15 9 2 0 2 7 8 5 7 9 7 3 3 3 1 1 3 1 2 1 1 2 2 2 3 3 5 6 1 2 1 5 6 5 1 2 3 5 2 3 2 2 8 6 5 5 5 5 7 5 3 4 6 8 1 3 4 5 6 3 2 6 3 3 1 4 2 1 3 1 4 4 2 3 4 1 2 3 7 9 8 8 11 11 11
22 21 16 9 1 2 1 4 9 9 7 6 7 3 4 5 2 3 1 5 2 3 0 1 3 1 3 4 3 4 4 1 1 4 0 2 5 3 0 2 3 2 3 3 4 5 6 2 2 2 5 2 3 1 3 0 1 3 0 1 1 3 8 5 5 4 1 2 4 3 0 1 0 4 6 4 7 5 3 7 6 8 9 9 7 6 7 10
22 22 17 5 6 2 3 6 2 1 5 7 5 4 4 1 5 2 5 4 1 3 2 2 1 1 5 4 5 3 4 2 3 5 7 6 4 6 4 4 3 0 3 1 6 4 2 1 3 5 3 7 1 1 5 3 5 6 5 6 4 1 4 1 4 2 1 3 1 1 1 4 1 3 5 8 6 7 3 2 9 13 9 8 7 8 7 5
24 20 23 11 8 4 8 13 6 7 6 5 3 3 2 4 2 5 4 2 2 1 1 2 3 2 3 2 4 5 5 6 3 4 6 1 5 6 4 8 7 5 2 3 0 2 5 3 3 4 5 1 4 2 2 1 2 3 2 4 4 1 1 1 2 1 2 6 6 2 0 1 3 4 2 3 9 4 3 6 8 10 12 10 9 7 6 5
24 21 9 4 8 10 5 2 3 3 2 3 2 5 5 2 4 5 4 3 4 3 7 4 5 12 2 1 4 3 2 4 4 3 9 2 3 3 3 4 6 3 2 1 2 2 2 3 4 1 1 2 3 4 7 4 3 3 4 7 6 7 4 3 3 4 5 6 3 4 3 2 2 4 3 4 6 7 5 7 9 10 9 8 8 9 8 7
26 17 7 5 5 10 13 8 2 0 1 1 5 4 4 5 3 2 2 2 2 2 4 2 7 5 8 6 5 10 6 1 1 1 3 6 4 3 5 4 4 5 3 3 2 1 4 5 5 4 2 1 2 3 3 4 5 1 3 6 6 6 7 4 6 5 2 0 2 0 2 4 3 2 2 7 12 10 8 10 12 11 9 10 10 9 6 5
13 5 3 4 3 5 9 7 5 3 5 4 4 1 5 6 2 2 3 3 1 3 10 11 5 6 3 5 5 6 5 3 3 1 1 2 3 5 5 4 5 9 6 6 3 2 2 1 2 5 1 3 6 3 1 3 1 2 2 1 3 4 9 4 1 0 5 5 3 1 2 3 5 3 6 6 7 8 12 9 11 10 10 12 10 8 6 5
7 7 4 3 3 3 7 8 8 7 6 6 4 3 6 3 6 6 3 2 3 6 3 6 4 2 2 2 2 8 5 1 4 4 4 4 5 4 2 3 5 9 13 9 1 3 4 4 5 2 5 4 4 2 3 2 6 4 2 5 1 4 5 5 3 2 2 3 4 0 1 1 2 2 4 7 8 5 3 8 13 13 14 14 8 6 6 6
7 3 5 6 11 5 9 10 10 5 6 5 3 6 2 3 3 6 4 9 7 3 3 2 3 2 2 3 6 7 4 2 5 2 5 7 3 7 5 3 6 3 1 2 6 2 4 2 1 2 1 5 6 3 2 1 1 3 3 3 3 1 0 4 4 1 0 1 2 2 0 0 1 2 3 5 5 4 5 3 6 10 12 13 12 9 6 7
2 2 6 7 3 9 9 11 8 7 5 3 3 0 4 6 6 9 7 8 4 4 4 3 2 2 2 4 6 7 2 6 1 1 2 1 1 1 2 3 1 1 4 7 4 1 3 3 4 3 2 2 3 5 2 7 9 2 2 3 0 5 2 1 3 3 5 2 1 2 3 1 2 1 0 4 2 5 6 6 5 4 5 8 9 8 6 7
2 2 4 3 4 7 12 10 6 4 4 4 3 3 2 3 6 8 8 5 3 1 4 4 1 1 1 3 3 1 2 2 5 5 2 4 1 3 4 4 3 1 3 4 3 1 1 2 1 4 4 3 2 2 2 2 3 7 6 1 1 2 2 5 1 1 2 3 2 1 2 2 4 4 3 3 7 4 7 7 4 4 4 5 8 8 6 5
2 1 5 4 8 6 11 7 4 4 3 2 2 2 3 3 3 4 9 8 5 6 6 2 1 1 3 1 3 1 2 3 2 2 3 1 1 0 1 2 1 3 2 6 7 3 3 1 2 2 4 0 2 1 4 2 1 2 2 3 6 6 3 2 3 2 2 4 2 2 1 5 4 1 1 4 4 11 12 12 9 7 5 4 5 6 7 6
2 2 5 6 7 2 9 6 1 2 2 3 4 3 3 5 5 10 8 8 7 5 6 4 3 3 2 3 3 1 0 2 1 1 1 5 3 3 3 7 3 4 2 2 1 1 3 3 3 0 1 2 4 2 1 1 0 0 2 2 1 3 6 5 2 3 2 0 5 4 5 2 3 1 1 4 7 4 4 10 9 6 5 4 4 5 5 5
2 4 9 10 6 1 6 2 2 2 1 4 2 4 5 5 7 7 8 6 5 4 2 1 1 2 3 3 2 3 3 1 2 1 5 3 1 3 5 5 5 7 6 1 2 1 6 2 1 4 6 4 4 0 5 7 5 7 6 5 4 2 2 6 3 5 4 0 1 1 1 2 3 1 1 3 5 5 5 7 11 6 5 6 7 7 7 6
2 3 7 5 10 4 4 3 3 4 4 3 2 5 3 5 5 6 5 4 4 1 1 0 3 3 0 4 2 2 1 1 4 7 2 5 1 4 4 3 5 1 1 3 3 2 2 2 6 2 3 6 7 8 7 6 7 2 1 3 2 4 5 1 3 1 4 1 5 6 3 1 1 4 4 8 8 8 7 4 8 9 5 6 6 6 6 6
3 2 3 7 9 6 0 2 1 1 1 2 2 4 4 2 5 7 4 2 4 3 1 3 4 3 4 2 2 1 4 3 0 7 4 3 1 1 4 5 9 5 3 3 6 4 5 1 2 2 2 1 0 0 2 4 4 3 1 4 5 6 5 5 1 2 3 1 5 3 1 4 4 3 7 7 9 8 4 5 4 8 8 7 5 5 5 6
3 3 6 6 7 7 2 1 2 3 0 2 2 3 1 2 4 3 5 2 4 5 8 2 7 7 6 6 5 6 8 6 5 1 5 5 5 4 4 8 8 4 6 9 4 4 2 1 3 4 6 6 3 2 3 0 3 3 6 5 5 2 3 5 4 3 2 2 3 4 7 2 4 3 2 5 9 9 7 7 9 6 5 5 6 7 7 6
1 5 3 7 7 4 6 3 8 7 5 2 1 3 3 2 2 2 9 2 6 2 5 12 6 5 3 3 3 6 6 3 6 7 5 3 5 2 6 7 6 7 8 5 3 5 3 3 0 6 3 4 3 1 1 1 1 2 4 5 4 4 2 6 3 1 1 5 2 1 1 7 3 3 3 2 2 7 8 7 6 5 6 7 6 6 6 5
4 2 3 1 1 4 9 8 10 8 7 4 2 4 7 7 9 5 4 5 6 11 3 6 13 11 8 4 4 5 6 4 8 3 6 5 3 8 5 8 5 5 5 2 4 4 4 2 1 2 1 2 2 2 4 4 3 2 4 3 4 2 7 6 1 0 2 1 4 1 1 5 1 1 0 1 4 4 2 0 0 1 1 1 5 7 7 7
3 2 1 5 3 2 4 9 10 4 10 9 1 8 8 9 9 6 4 4 7 8 8 4 7 11 13 10 6 4 6 3 5 3 4 6 3 3 4 4 6 9 6 3 4 1 4 1 1 2 2 4 4 6 7 8 4 4 3 1 0 3 2 4 2 1 4 3 0 5 7 7 4 4 4 4 4 6 5 5 6 6 4 5 4 3 2 7
5 3 5 3 1 3 7 7 4 7 8 10 5 7 6 6 6 8 10 8 3 4 6 9 7 9 10 12 9 6 3 2 1 1 3 6 7 4 2 2 2 7 5 2 1 4 4 1 3 2 3 1 2 6 8 7 7 4 3 2 0 2 4 2 3 4 6 5 4 7 10 6 3 3 3 3 3 5 11 11 7 6 8 6 5 3 1 1
2 1 1 2 6 7 5 8 6 6 9 11 8 7 4 9 6 6 9 9 8 3 3 3 2 7 9 11 10 7 3 2 2 2 3 1 2 2 2 3 3 2 5 2 1 2 5 1 2 2 2 1 1 4 3 4 5 5 5 7 7 4 6 3 4 2 4 4 1 8 6 2 4 6 3 6 8 11 9 7 8 7 5 6 6 4 2 4
1 2 0 1 3 6 4 4 9 7 8 6 6 6 5 6 5 4 3 7 8 7 3 3 3 9 5 10 8 5 4 3 5 7 4 4 4 5 4 4 2 1 2 1 1 2 2 3 2 2 3 2 3 4 4 4 6 4 3 6 5 4 7 4 7 9 4 4 6 6 1 2 2 2 9 7 9 9 10 6 6 7 7 6 7 5 4 3
Wind_Direction
320 316 315 315 314 314 314 313 311 309 308 307 307 310 307 309 307 305 304 303 302 301 303 296 306 307 306 308 312 317 328 324 310 303 233 241 196 222 205 221 242 222 175 191 280 317 324 327 270 266 353 72 260 235 236 190 187 106 199 151 248 226 242 220 228 86 285 331 316 319 310 105 17 339 39 66 65 81 70 67 56 51 55 82 101 123 135 143
319 316 313 312 311 311 310 308 306 306 307 306 308 308 307 307 307 306 304 305 304 302 303 306 308 305 308 310 315 320 331 300 288 271 239 217 188 204 221 240 254 271 138 140 209 202 195 274 250 238 119 257 205 223 142 272 153 146 195 150 238 200 248 276 228 317 335 285 288 287 308 339 64 245 16 91 147 108 73 47 74 82 70 92 103 123 134 144
317 314 312 311 309 308 307 307 305 304 302 302 302 302 306 307 309 309 308 307 309 311 307 305 307 306 302 314 319 333 333 304 266 259 258 230 217 199 212 221 241 159 165 161 205 179 187 126 19 42 209 265 265 232 175 255 296 229 167 239 248 218 251 258 196 255 246 257 284 333 331 16 308 337 338 126 190 117 123 121 78 105 118 119 127 131 135 150
315 312 310 306 305 304 305 303 303 302 303 302 303 304 304 304 305 307 308 308 313 314 306 299 301 302 308 316 321 334 314 279 293 251 253 209 196 204 206 211 187 178 163 104 131 156 171 320 319 343 298 210 278 217 219 248 172 266 144 213 234 226 247 267 242 239 261 271 270 241 307 23 316 308 158 189 125 301 188 168 144 151 147 143 142 143 150 158
315 310 307 304 302 303 302 299 298 301 301 299 300 301 303 304 303 304 305 307 311 312 308 306 302 307 314 313 324 346 315 29 202 229 263 308 188 196 203 196 194 178 169 142 130 267 239 277 42 2 202 259 239 270 238 239 212 353 211 219 228 251 255 256 251 263 251 255 285 285 58 277 304 10 355 155 215 206 195 209 150 151 144 142 146 156 154 157
315 310 305 303 304 302 300 297 296 300 300 298 298 300 299 299 303 307 306 306 310 309 310 308 308 310 312 320 311 281 309 88 280 277 58 354 178 188 193 189 176 150 136 206 140 102 132 221 152 178 239 192 226 187 257 204 180 241 274 269 247 242 236 259 243 237 193 280 270 323 216 232 64 297 298 12 237 244 227 139 150 149 148 144 142 148 152 145
314 308 305 304 302 298 298 297 295 295 298 296 295 295 297 298 300 300 300 304 304 309 309 307 305 312 324 319 259 187 206 274 290 252 85 85 109 146 153 149 142 138 139 139 159 178 171 138 143 230 260 241 252 202 239 220 173 206 249 250 261 235 236 248 250 243 248 234 238 209 74 328 71 326 311 46 310 159 105 117 120 121 128 133 134 130 107 72
316 309 304 303 301 298 296 296 295 297 297 295 294 298 303 302 300 300 301 303 302 302 306 311 311 317 339 341 122 287 132 251 243 182 129 96 90 105 112 114 144 144 156 188 170 174 118 218 222 233 226 194 218 187 262 317 178 207 257 250 253 248 240 252 234 239 254 255 254 250 264 251 184 197 94 15 121 112 113 114 120 124 124 120 112 103 93 81
317 310 308 306 302 298 296 297 298 294 292 291 291 294 295 294 294 300 304 304 303 302 308 311 315 317 330 274 286 332 256 231 215 149 133 122 122 117 126 139 168 160 189 188 176 137 135 249 237 193 269 227 250 253 269 249 303 225 226 244 253 250 254 248 268 240 239 257 240 248 252 268 247 144 55 176 119 113 112 112 123 125 124 118 110 114 114 114
318 316 314 308 300 297 298 296 294 293 291 289 290 290 289 287 290 293 295 294 294 295 296 302 308 325 1 242 241 52 261 155 106 144 139 130 121 129 169 149 164 169 168 205 149 173 186 221 186 221 265 273 250 252 246 169 237 230 281 258 241 246 241 255 240 286 290 244 250 230 240 249 278 144 49 303 131 115 108 116 122 127 126 121 120 125 139 136
326 320 313 304 299 296 297 295 291 291 291 288 288 293 294 293 295 294 294 292 293 292 292 298 308 355 286 257 138 214 249 108 112 132 143 139 133 141 190 176 179 171 189 189 198 195 217 230 244 306 276 226 339 292 238 217 322 293 253 270 268 266 226 226 280 278 315 302 194 188 244 229 311 99 166 166 167 133 123 126 129 125 127 125 128 140 130 129
330 323 316 309 302 299 298 293 290 290 291 291 290 289 286 291 291 289 289 290 289 290 292 294 326 270 254 241 194 231 287 138 146 154 157 149 159 188 178 180 182 189 176 195 253 230 220 231 231 191 243 292 329 316 300 279 323 283 295 329 283 345 331 306 257 256 168 272 268 237 342 313 333 187 173 154 156 145 130 134 133 129 126 126 128 127 131 137
334 327 320 314 309 304 296 293 292 291 290 287 284 282 282 283 285 283 283 282 274 278 286 303 309 260 300 318 226 235 229 43 156 162 184 195 160 174 188 187 194 198 186 191 228 230 228 227 220 222 230 162 188 231 278 320 285 311 332 264 340 354 318 262 246 250 271 234 127 84 294 263 261 178 163 150 154 142 129 134 135 130 128 132 133 122 95 121
340 333 326 317 309 300 297 295 293 289 286 286 285 283 283 284 283 283 277 265 265 267 268 269 298 306 201 246 275 250 220 173 187 168 207 200 133 224 211 226 212 228 239 229 254 258 277 246 210 231 205 183 275 288 340 320 353 336 280 35 288 4 280 267 176 239 273 203 141 94 238 268 264 167 167 163 151 144 142 147 146 144 142 139 139 134 155 169
344 338 329 323 314 309 304 298 293 292 291 290 289 284 277 278 277 275 271 272 261 251 258 265 175 126 333 269 263 265 263 146 181 200 196 165 166 257 225 232 233 216 214 225 239 242 233 295 286 44 286 260 35 26 321 344 331 314 20 318 332 214 270 292 285 214 219 284 138 142 246 249 218 175 158 151 157 148 145 153 157 150 145 145 144 143 153 164
346 342 335 326 319 310 304 301 297 295 291 290 288 284 279 273 270 266 264 260 260 246 137 359 190 201 353 289 258 319 347 136 201 196 206 162 168 199 220 211 241 240 227 243 222 271 274 194 204 198 295 358 28 66 8 13 340 345 130 282 285 292 269 337 273 198 213 215 174 169 224 294 330 181 165 167 162 158 140 155 166 152 145 146 149 150 152 144
348 345 339 332 324 317 309 304 299 296 296 291 289 282 278 272 270 266 262 259 247 197 208 215 109 176 347 235 305 311 224 223 159 165 186 198 175 200 188 242 256 250 262 291 295 321 307 15 287 52 7 198 152 79 19 7 319 309 355 248 215 238 283 287 288 263 213 174 217 198 208 219 162 178 179 170 157 139 151 158 163 151 149 153 153 154 155 155
347 346 342 337 327 320 313 307 304 302 300 293 278 275 276 272 287 314 273 216 203 202 230 260 242 293 273 326 287 234 194 142 179 195 182 198 180 191 176 210 239 212 33 337 339 202 295 283 19 192 359 8 44 64 116 241 192 250 317 345 322 281 223 248 261 284 148 192 186 197 207 247 258 251 181 167 171 160 163 163 163 155 153 154 154 156 159 160
346 345 343 339 333 324 317 312 309 308 305 303 294 274 265 248 336 241 241 166 133 39 6 236 124 148 145 210 275 317 254 200 134 137 219 176 220 192 196 235 258 123 277 96 282 213 327 322 22 30 268 300 235 162 181 227 204 235 213 202 213 286 299 247 269 257 150 162 188 173 204 235 307 25 166 181 176 165 157 143 134 133 144 151 155 160 164 167
344 343 343 341 336 327 321 316 308 310 315 321 343 49 106 35 356 27 336 232 230 210 236 198 207 269 306 288 263 228 280 301 147 219 188 188 129 170 232 205 252 122 118 183 277 269 133 166 216 215 222 230 241 199 204 230 240 245 164 143 215 297 298 309 337 335 134 95 45 155 81 73 338 133 301 155 80 91 131 137 140 156 164 166 161 163 168 171
342 342 342 341 338 332 322 319 313 306 319 329 298 342 307 155 51 307 228 224 224 237 238 235 190 218 238 284 299 317 306 256 195 202 206 169 137 115 246 168 175 250 231 193 176 270 85 214 250 227 220 209 225 229 226 253 183 189 42 45 318 306 321 302 283 8 354 109 285 332 109 196 239 188 168 135 141 168 158 150 162 179 178 170 162 161 169 177
342 340 340 338 336 333 324 318 326 323 330 338 335 279 252 216 199 201 8 305 244 223 227 239 223 246 250 249 261 268 303 269 230 237 259 145 203 154 284 176 153 221 282 19 13 348 106 208 241 235 229 224 249 255 230 207 304 340 357 251 347 313 252 290 311 1 29 84 249 255 158 226 291 304 137 152 168 178 169 167 177 177 177 164 157 158 161 157
341 339 336 335 337 332 327 317 301 133 337 92 154 222 247 224 323 340 2 261 286 195 213 225 241 239 259 254 250 175 206 238 216 225 211 149 132 187 167 169 192 222 251 120 202 215 280 282 241 238 191 186 270 228 81 45 59 327 345 27 253 238 49 304 310 344 357 76 285 220 24 288 317 317 122 154 156 182 185 177 176 178 165 167 169 167 167 168
338 338 336 334 332 334 322 323 306 53 211 217 237 224 252 293 301 329 32 265 293 295 204 219 201 224 239 219 211 188 208 211 205 218 210 140 158 176 158 187 198 206 243 203 195 189 218 242 308 293 179 174 208 209 141 73 319 309 200 227 249 315 216 198 267 320 312 336 103 32 22 340 10 35 49 186 175 165 185 196 194 199 180 174 165 165 170 171
335 335 335 333 332 330 325 310 322 239 194 197 238 245 256 263 260 181 143 322 338 280 208 223 196 227 238 160 220 210 209 212 207 179 183 160 153 118 216 150 148 232 228 207 159 262 276 269 271 304 196 177 175 223 209 126 19 315 261 213 228 214 213 295 304 20 23 345 332 103 25 308 308 345 222 300 89 194 187 183 198 189 160 145 169 174 176 162
333 331 332 332 328 332 309 329 274 339 287 267 253 290 315 309 275 189 110 73 296 269 295 275 142 254 161 221 132 196 121 227 201 188 166 188 171 165 116 217 156 228 228 222 219 211 227 244 182 214 174 159 165 171 209 126 162 95 273 185 192 172 141 73 12 56 41 91 293 76 131 265 325 335 297 291 176 193 225 218 199 171 174 176 172 169 170 161
328 328 331 329 328 336 358 254 313 296 316 295 4 329 314 304 268 79 52 350 351 244 182 293 205 292 119 223 165 135 249 258 194 162 169 158 187 151 153 229 97 213 164 173 45 289 299 266 154 95 99 95 77 158 252 153 113 237 242 186 165 102 91 134 109 116 217 256 316 33 103 179 302 291 250 231 132 179 204 225 217 203 175 174 170 172 169 166
324 324 326 325 321 335 219 323 337 336 236 265 324 319 310 287 9 49 83 19 329 271 121 208 232 358 229 249 153 169 207 180 86 246 183 181 157 157 189 210 188 185 235 73 288 255 177 233 163 158 127 96 185 207 233 110 139 213 287 198 282 173 162 139 99 103 29 76 289 328 347 48 273 269 307 44 344 337 216 200 185 190 187 174 173 175 180 171
321 320 322 320 317 310 214 204 180 244 238 315 310 306 302 342 72 114 122 106 251 60 277 145 283 88 266 85 197 204 245 66 192 247 184 156 177 132 207 234 193 171 202 163 212 296 299 200 204 157 121 185 225 230 166 149 341 274 216 238 67 15 77 98 88 63 360 65 287 278 343 215 293 281 325 333 68 322 293 124 164 179 183 176 176 175 157 141
317 318 320 319 320 87 211 206 234 243 301 312 299 300 353 49 34 44 346 251 331 292 217 256 131 230 157 160 214 224 232 245 148 27 155 160 214 39 222 168 184 197 256 358 162 215 245 276 174 123 176 200 190 232 169 171 205 194 66 58 1 32 10 10 72 92 63 56 256 234 276 132 296 278 260 9 319 297 232 341 126 157 160 164 169 159 158 161
316 316 313 315 248 251 165 272 247 243 250 282 307 1 64 35 111 98 200 231 298 256 339 15 253 77 148 164 217 237 231 213 277 126 274 165 176 190 356 355 24 52 30 2 324 310 327 268 159 245 176 142 131 110 314 103 124 133 73 102 37 341 4 28 349 37 99 276 258 260 76 106 180 299 319 244 279 300 211 136 159 153 145 150 147 136 147 167
316 313 303 290 222 286 179 233 208 103 343 335 8 53 70 45 8 145 213 325 63 279 78 292 228 272 198 206 182 212 195 200 172 162 169 192 142 180 231 196 177 9 339 281 262 357 345 358 262 306 270 136 141 14 308 359 8 70 78 34 98 265 29 346 13 4 208 195 256 288 8 30 223 216 258 305 315 310 297 149 146 135 123 113 121 132 143 144
317 307 305 277 220 208 241 247 305 325 331 4 42 53 60 103 211 246 273 305 247 133 272 207 291 272 266 244 234 215 185 223 198 190 176 207 143 215 215 188 182 143 184 246 215 13 282 290 351 297 337 140 110 171 298 346 355 105 171 134 77 74 49 233 276 218 329 300 273 322 49 193 254 300 245 340 341 3 20 89 83 106 116 116 113 116 115 115
314 311 307 224 189 210 231 210 230 283 359 39 69 38 59 92 241 236 223 246 250 325 342 333 321 316 337 51 290 212 182 219 171 213 165 182 132 203 284 283 149 81 119 203 200 192 46 351 311 50 280 265 113 163 179 175 172 198 152 144 177 141 158 209 191 199 207 205 276 289 63 233 83 217 272 332 23 48 37 55 84 81 87 85 85 83 84 88
313 298 256 263 237 236 228 228 189 143 74 65 56 87 135 232 249 225 244 285 291 286 283 287 262 160 313 311 268 221 174 287 47 118 208 129 203 177 188 231 230 124 123 119 251 90 195 203 250 240 218 152 183 217 146 102 46 283 128 78 91 212 141 169 203 143 208 216 352 16 200 181 151 229 295 83 75 52 48 64 63 66 62 71 63 61 65 83
314 303 233 256 203 250 183 192 165 171 111 67 82 123 193 194 212 195 228 207 273 350 322 324 314 128 222 278 295 306 179 152 282 41 286 175 198 204 225 189 186 178 141 167 199 199 27 289 268 313 52 189 214 175 218 113 93 262 66 69 226 183 115 99 44 169 98 54 258 197 330 325 302 359 33 32 66 111 113 94 91 81 69 65 57 44 37 47
330 327 344 262 249 194 150 145 151 139 100 102 102 222 209 265 227 280 285 303 319 322 326 16 308 105 162 288 305 331 333 304 190 190 287 329 318 352 311 284 196 168 172 144 306 179 139 239 292 72 340 319 276 173 179 148 145 76 86 236 330 83 121 120 179 352 54 140 252 360 188 309 56 241 345 45 84 27 17 127 128 122 116 102 91 68 63 42
312 296 253 251 239 184 133 140 129 116 96 101 179 222 218 235 220 247 313 321 318 346 328 284 264 223 106 73 307 334 305 73 285 96 214 201 205 256 313 321 328 76 85 86 124 256 110 346 310 302 261 278 337 95 358 345 96 155 191 195 90 258 240 322 92 222 107 254 255 337 184 150 160 258 352 25 99 81 75 31 105 118 119 123 126 127 120 101
251 330 322 254 254 155 138 138 121 121 88 108 231 146 268 241 278 272 274 277 277 297 293 234 202 279 125 149 186 243 192 261 235 192 187 301 90 327 104 241 245 48 98 102 76 202 56 149 300 303 43 306 13 50 11 315 341 6 76 35 359 99 163 115 196 177 119 239 77 277 41 180 230 234 196 137 360 118 99 89 74 77 100 113 116 120 131 122
357 20 286 266 327 122 136 123 96 93 89 175 214 225 252 292 277 280 275 272 285 221 226 267 182 254 280 187 166 239 269 279 184 242 124 283 135 226 152 288 295 80 96 77 127 129 78 106 184 280 304 18 46 358 94 50 343 333 31 343 35 40 216 110 9 80 157 167 165 155 27 282 271 216 159 181 135 126 120 111 98 100 111 119 123 125 114 105
284 137 274 272 21 128 121 98 94 157 173 250 163 220 246 256 299 285 289 280 279 249 235 227 217 198 204 311 321 215 175 259 245 135 111 150 118 75 257 237 288 311 25 33 50 349 77 8 202 308 14 37 209 226 33 326 218 197 162 215 167 119 101 118 242 350 88 95 194 105 240 262 275 167 191 182 180 139 143 132 128 123 115 116 120 119 123 105
32 9 260 293 2 162 122 131 208 171 130 173 230 196 244 235 251 263 273 272 240 251 227 242 233 220 207 204 201 228 127 228 225 123 199 155 191 118 347 346 82 170 107 65 171 246 145 140 95 4 195 238 250 273 189 19 164 184 152 289 91 107 101 99 124 261 12 171 118 138 123 276 247 220 233 210 176 159 119 122 119 121 126 133 125 113 90 98
39 230 268 303 317 149 88 82 321 40 221 231 233 249 248 267 266 279 289 287 291 244 255 218 259 55 1 25 8 55 18 74 323 244 147 115 175 198 172 112 73 50 81 317 24 296 73 75 38 310 312 296 317 314 80 32 46 24 8 31 33 3 179 162 168 183 137 360 80 41 117 240 275 321 217 154 115 93 81 113 122 118 124 120 116 106 107 103
279 292 319 324 354 47 82 152 243 242 253 294 233 260 227 253 263 277 264 285 276 263 180 21 7 71 66 23 42 40 12 83 4 43 84 107 203 217 134 59 119 70 89 213 133 256 73 296 117 48 356 339 342 352 6 349 51 74 329 340 30 5 22 17 103 87 93 220 166 121 181 249 287 6 105 91 81 88 103 97 119 120 125 125 120 117 118 121
293 272 258 310 354 29 158 235 133 203 290 277 280 295 302 283 226 226 232 332 341 338 22 31 359 348 42 338 63 72 30 105 139 0 22 36 9 148 165 160 107 81 51 148 138 116 96 176 95 117 133 121 274 275 312 337 312 295 340 349 13 50 22 30 23 348 91 281 94 101 177 250 282 7 93 100 103 93 91 119 115 132 141 140 133 124 127 122
12 5 311 339 9 351 62 278 86 26 360 342 359 269 221 288 315 338 3 104 9 71 46 10 22 66 38 34 34 29 15 10 78 350 22 6 357 21 357 65 65 104 101 91 79 77 127 77 98 149 148 178 202 209 242 111 5 25 310 5 346 14 41 102 119 85 156 217 100 212 159 177 45 1 69 121 123 130 140 143 144 149 155 149 149 154 150 149
338 51 351 341 324 23 342 334 12 14 347 270 94 314 359 327 292 346 9 67 3 27 64 31 15 45 335 58 44 48 350 48 14 70 4 357 336 359 341 52 65 68 83 68 79 78 64 59 311 110 124 179 183 199 275 67 64 309 18 334 25 40 48 75 80 313 177 77 337 271 181 107 178 177 159 140 153 157 157 161 152 153 167 165 167 149 131 121
50 309 69 281 209 327 350 347 348 334 341 30 43 360 23 9 20 21 339 32 28 21 79 12 37 40 30 66 99 58 336 55 47 30 317 15 335 351 18 1 49 1 53 19 24 107 128 121 260 99 72 126 130 74 31 56 76 64 36 6 24 14 62 81 347 171 114 121 183 254 315 118 215 338 45 170 191 162 144 22 28 141 129 168 146 144 148 148
88 313 341 348 75 286 207 265 303 282 29 14 90 32 31 33 43 24 14 334 30 8 32 92 34 38 45 31 72 92 13 56 357 348 36 335 15 333 20 341 357 8 41 30 25 65 88 358 197 105 99 37 23 44 48 59 22 54 46 41 237 82 124 121 87 24 99 103 115 142 104 66 13 343 14 35 54 87 94 98 68 52 54 56 27 4 188 162
4 28 326 3 225 282 302 331 349 20 51 6 49 6 40 27 35 27 32 33 34 12 9 74 52 45 50 53 51 78 46 107 158 340 337 8 333 25 336 104 312 332 31 43 34 342 100 255 137 66 71 342 337 58 53 54 58 33 324 17 239 142 80 48 86 18 63 63 46 74 78 66 359 13 347 326 3 64 55 53 60 60 53 52 66 55 55 20
276 199 243 334 12 353 360 12 354 24 40 7 19 11 41 35 31 33 60 33 58 54 39 93 77 57 32 44 49 50 9 360 307 246 232 217 289 302 42 285 39 330 354 4 37 327 70 205 43 68 78 319 308 65 26 66 78 70 18 1 5 27 63 357 59 305 121 145 81 70 55 14 293 353 22 44 53 55 63 48 45 37 28 42 53 28 330 185
272 253 315 164 68 345 27 359 25 32 29 351 349 10 24 35 40 42 54 11 33 52 58 113 104 84 32 43 23 345 302 287 294 291 285 260 228 259 234 252 288 305 297 62 346 99 147 114 90 84 84 254 274 81 64 47 34 12 337 308 308 48 106 88 41 22 29 129 81 100 203 230 250 281 79 43 59 59 55 38 32 30 30 47 55 38 14 342